Location: Poughquag
(41.6090°N, 73.6820°W)
Time: 03:42:11
(UTC-04:00)

Vanguard 1 - Pass Details

Date: 06 June 2020
Orbit: 650 x 3833 km, 34.2° (Epoch: 06 July)

Event Time Altitude Azimuth Distance (km) Brightness Sun altitude
Rises 03:12:14 0° 206° (SSW) 4,624 - -18.1°
Reaches altitude 10° 03:15:15 10° 196° (SSW) 4,009 - -17.8°
Exits shadow 03:17:16 17° 187° (S) 3,704 12.5 -17.6°
Maximum altitude 03:24:57 33° 137° (SE) 3,589 12.8 -16.7°
Drops below altitude 10° 03:40:15 10° 84° (E) 6,378 14.9 -15.0°
Sets 03:46:42 0° 76° (ENE) 7,733 15.6 -14.2°
